QPF
0.00 0.01 0.01 0.03 0.04 0.05 0.07 0.05 0.05 0.05 0.05 0.06 0.06 0.05 0.04 0.04 0.05 0.06 0.06 0.04 0.03 0.03 0.04 0.03 0.02 0.02 0.01 0.02 0.02 0.01 0.01 0.01 0.01 0.01 0.01 0.01 0.01 0.01 0.01 0.01 0.02 0.02 0.04
0.00 0.01 0.02 0.04 0.04 0.04 0.05 0.04 0.03 0.03 0.03 0.04 0.06 0.05 0.05 0.05 0.06 0.06 0.06 0.05 0.05 0.04 0.04 0.03 0.02 0.02 0.02 0.01 0.01 0.01 0.01 0.01 0.00 0.00 0.00 0.00 0.01 0.01 0.02 0.01 0.02 0.02 0.03
0.00 0.01 0.02 0.04 0.03 0.03 0.03 0.03 0.03 0.03 0.03 0.03 0.05 0.05 0.04 0.05 0.05 0.06 0.05 0.04 0.05 0.06 0.05 0.03 0.04 0.03 0.02 0.01 0.01 0.01 0.01 0.01 0.01 0.00 0.01 0.01 0.02 0.02 0.02 0.02 0.02 0.02 0.02
0.00 0.01 0.01 0.03 0.02 0.02 0.02 0.02 0.02 0.03 0.03 0.03 0.04 0.03 0.04 0.06 0.06 0.06 0.04 0.04 0.05 0.05 0.05 0.03 0.03 0.03 0.03 0.03 0.02 0.01 0.01 0.01 0.01 0.01 0.02 0.03 0.02 0.03 0.04 0.03 0.03 0.03 0.02
0.00 0.01 0.02 0.02 0.02 0.02 0.02 0.02 0.02 0.03 0.04 0.04 0.04 0.04 0.05 0.06 0.06 0.04 0.03 0.03 0.03 0.03 0.03 0.03 0.02 0.02 0.02 0.02 0.01 0.01 0.00 0.00 0.00 0.01 0.02 0.02 0.03 0.04 0.03 0.03 0.04 0.03 0.02
0.00 0.01 0.02 0.02 0.02 0.02 0.03 0.02 0.02 0.03 0.04 0.04 0.04 0.04 0.05 0.05 0.04 0.03 0.03 0.02 0.01 0.01 0.02 0.03 0.02 0.02 0.02 0.02 0.01 0.01 0.01 0.00 0.01 0.02 0.02 0.03 0.03 0.03 0.02 0.03 0.02 0.03 0.02
0.00 0.01 0.01 0.03 0.03 0.02 0.03 0.03 0.02 0.02 0.03 0.03 0.03 0.03 0.04 0.04 0.03 0.03 0.03 0.02 0.01 0.01 0.02 0.02 0.02 0.02 0.02 0.02 0.02 0.01 0.01 0.01 0.02 0.03 0.02 0.03 0.03 0.04 0.02 0.02 0.02 0.02 0.03
0.00 0.01 0.01 0.02 0.02 0.02 0.03 0.04 0.04 0.03 0.02 0.03 0.04 0.03 0.03 0.03 0.02 0.02 0.02 0.02 0.02 0.02 0.02 0.02 0.02 0.02 0.02 0.02 0.02 0.01 0.01 0.01 0.03 0.02 0.01 0.03 0.03 0.03 0.03 0.02 0.02 0.02 0.03
0.00 0.01 0.01 0.01 0.01 0.02 0.02 0.03 0.04 0.04 0.03 0.03 0.04 0.04 0.03 0.02 0.02 0.02 0.01 0.02 0.02 0.02 0.02 0.02 0.02 0.02 0.02 0.02 0.02 0.01 0.01 0.01 0.03 0.03 0.02 0.04 0.04 0.04 0.04 0.03 0.03 0.03 0.03
0.00 0.00 0.01 0.02 0.02 0.02 0.02 0.03 0.03 0.04 0.03 0.03 0.04 0.02 0.02 0.03 0.03 0.02 0.01 0.02 0.02 0.02 0.02 0.02 0.02 0.01 0.01 0.02 0.02 0.02 0.02 0.01 0.02 0.03 0.02 0.03 0.03 0.04 0.03 0.03 0.03 0.03 0.03
0.01 0.01 0.01 0.02 0.02 0.02 0.02 0.02 0.03 0.03 0.03 0.02 0.03 0.03 0.02 0.03 0.03 0.02 0.01 0.01 0.01 0.02 0.02 0.02 0.02 0.01 0.01 0.01 0.02 0.02 0.02 0.02 0.02 0.02 0.02 0.02 0.02 0.03 0.02 0.03 0.04 0.03 0.03
0.01 0.01 0.01 0.02 0.02 0.02 0.02 0.02 0.03 0.03 0.03 0.02 0.03 0.03 0.02 0.03 0.04 0.03 0.02 0.02 0.02 0.02 0.02 0.02 0.02 0.02 0.02 0.01 0.01 0.01 0.02 0.02 0.03 0.02 0.01 0.01 0.03 0.03 0.02 0.02 0.02 0.02 0.02
0.01 0.01 0.01 0.02 0.02 0.02 0.02 0.02 0.03 0.03 0.04 0.03 0.03 0.03 0.02 0.03 0.03 0.02 0.02 0.01 0.02 0.02 0.02 0.01 0.01 0.02 0.02 0.02 0.01 0.01 0.01 0.02 0.03 0.03 0.01 0.01 0.02 0.03 0.02 0.02 0.02 0.02 0.02
0.01 0.01 0.01 0.01 0.02 0.02 0.02 0.02 0.03 0.03 0.04 0.04 0.04 0.05 0.04 0.02 0.02 0.02 0.01 0.01 0.01 0.02 0.02 0.02 0.02 0.02 0.01 0.01 0.01 0.01 0.01 0.01 0.02 0.02 0.01 0.01 0.01 0.03 0.03 0.03 0.02 0.02 0.03
0.00 0.01 0.01 0.01 0.01 0.01 0.01 0.01 0.02 0.03 0.03 0.04 0.05 0.05 0.05 0.04 0.02 0.02 0.01 0.01 0.01 0.01 0.02 0.02 0.02 0.03 0.02 0.02 0.02 0.01 0.01 0.02 0.02 0.01 0.01 0.01 0.01 0.02 0.02 0.03 0.03 0.02 0.03
0.00 0.01 0.01 0.01 0.01 0.01 0.01 0.01 0.01 0.01 0.02 0.03 0.03 0.04 0.05 0.05 0.04 0.03 0.02 0.01 0.01 0.01 0.01 0.01 0.01 0.02 0.03 0.03 0.02 0.02 0.01 0.01 0.01 0.01 0.02 0.01 0.01 0.01 0.02 0.03 0.03 0.03 0.04
0.00 0.00 0.01 0.01 0.01 0.02 0.01 0.01 0.01 0.01 0.02 0.02 0.02 0.03 0.04 0.06 0.06 0.05 0.03 0.01 0.01 0.01 0.01 0.01 0.01 0.02 0.03 0.03 0.03 0.02 0.02 0.01 0.01 0.01 0.01 0.02 0.01 0.01 0.02 0.03 0.03 0.03 0.04
0.00 0.00 0.01 0.01 0.01 0.01 0.01 0.01 0.01 0.01 0.01 0.02 0.02 0.02 0.02 0.04 0.05 0.05 0.04 0.02 0.01 0.01 0.01 0.01 0.02 0.02 0.02 0.02 0.02 0.02 0.02 0.02 0.02 0.01 0.01 0.01 0.01 0.01 0.01 0.02 0.03 0.02 0.03
0.00 0.00 0.00 0.01 0.01 0.01 0.01 0.01 0.01 0.01 0.01 0.02 0.02 0.02 0.02 0.02 0.03 0.04 0.04 0.04 0.02 0.02 0.01 0.01 0.03 0.02 0.02 0.02 0.02 0.02 0.02 0.02 0.02 0.02 0.01 0.01 0.01 0.01 0.01 0.01 0.02 0.01 0.02
0.00 0.00 0.00 0.01 0.01 0.01 0.01 0.02 0.02 0.01 0.01 0.02 0.02 0.03 0.02 0.02 0.03 0.03 0.03 0.03 0.02 0.02 0.02 0.01 0.02 0.03 0.02 0.02 0.03 0.03 0.03 0.03 0.03 0.03 0.02 0.01 0.01 0.01 0.01 0.01 0.01 0.01 0.01
0.00 0.00 0.00 0.00 0.00 0.01 0.01 0.01 0.02 0.01 0.01 0.02 0.02 0.03 0.03 0.02 0.02 0.04 0.04 0.03 0.03 0.02 0.02 0.01 0.01 0.02 0.02 0.03 0.03 0.04 0.04 0.04 0.04 0.04 0.03 0.02 0.01 0.01 0.01 0.01 0.01 0.01 0.01
0.00 0.00 0.00 0.00 0.00 0.01 0.01 0.01 0.01 0.02 0.02 0.02 0.02 0.03 0.03 0.03 0.02 0.02 0.04 0.04 0.04 0.03 0.02 0.01 0.02 0.02 0.02 0.03 0.03 0.04 0.05 0.05 0.04 0.03 0.03 0.03 0.02 0.01 0.01 0.01 0.01 0.01 0.01
0.00 0.00 0.00 0.00 0.00 0.00 0.01 0.01 0.01 0.02 0.02 0.03 0.03 0.03 0.04 0.04 0.03 0.02 0.02 0.04 0.05 0.04 0.04 0.02 0.02 0.02 0.02 0.02 0.03 0.04 0.05 0.05 0.04 0.03 0.02 0.02 0.02 0.01 0.01 0.01 0.01 0.01 0.01
0.00 0.00 0.00 0.00 0.00 0.00 0.01 0.01 0.01 0.02 0.02 0.03 0.03 0.04 0.05 0.06 0.05 0.04 0.03 0.03 0.05 0.05 0.04 0.04 0.03 0.02 0.02 0.02 0.03 0.04 0.04 0.04 0.04 0.03 0.03 0.03 0.02 0.01 0.01 0.01 0.01 0.01 0.01
0.00 0.00 0.00 0.00 0.00 0.00 0.00 0.00 0.01 0.02 0.02 0.02 0.03 0.04 0.05 0.06 0.06 0.06 0.05 0.04 0.03 0.05 0.06 0.05 0.04 0.03 0.03 0.02 0.04 0.05 0.05 0.04 0.03 0.03 0.03 0.03 0.03 0.02 0.02 0.02 0.02 0.02 0.02
0.00 0.00 0.00 0.00 0.00 0.00 0.00 0.00 0.00 0.01 0.01 0.02 0.03 0.03 0.04 0.04 0.04 0.05 0.06 0.05 0.04 0.04 0.05 0.06 0.05 0.04 0.03 0.02 0.03 0.03 0.04 0.05 0.04 0.04 0.03 0.03 0.03 0.03 0.03 0.03 0.02 0.02 0.02
MSLP
1011.82 1012.04 1012.35 1012.72 1013.14 1013.57 1013.98 1014.34 1014.65 1014.90 1015.11 1015.32 1015.53 1015.77 1016.03 1016.31 1016.58 1016.81 1016.99 1017.11 1017.16 1017.16 1017.13 1017.10 1017.09 1017.10 1017.16 1017.24 1017.33 1017.42 1017.50 1017.56 1017.59 1017.60 1017.60 1017.59 1017.59 1017.61 1017.63 1017.68 1017.74 1017.82 1017.92
1011.77 1012.04 1012.41 1012.85 1013.32 1013.80 1014.24 1014.61 1014.91 1015.15 1015.34 1015.53 1015.73 1015.99 1016.28 1016.61 1016.93 1017.24 1017.49 1017.66 1017.76 1017.80 1017.78 1017.74 1017.71 1017.68 1017.68 1017.71 1017.76 1017.82 1017.89 1017.95 1018.02 1018.08 1018.13 1018.18 1018.22 1018.26 1018.28 1018.31 1018.34 1018.38 1018.44
1011.61 1011.93 1012.35 1012.86 1013.41 1013.96 1014.46 1014.87 1015.20 1015.45 1015.65 1015.84 1016.05 1016.29 1016.59 1016.92 1017.27 1017.59 1017.88 1018.09 1018.24 1018.31 1018.33 1018.31 1018.27 1018.23 1018.19 1018.17 1018.17 1018.19 1018.24 1018.31 1018.40 1018.50 1018.62 1018.73 1018.83 1018.90 1018.95 1018.97 1018.99 1019.00 1019.03
1011.42 1011.77 1012.24 1012.80 1013.42 1014.04 1014.61 1015.10 1015.49 1015.80 1016.03 1016.24 1016.45 1016.69 1016.96 1017.26 1017.58 1017.89 1018.16 1018.40 1018.57 1018.69 1018.76 1018.78 1018.77 1018.74 1018.69 1018.64 1018.60 1018.58 1018.59 1018.65 1018.75 1018.89 1019.06 1019.23 1019.38 1019.50 1019.59 1019.63 1019.64 1019.64 1019.65
1011.27 1011.63 1012.12 1012.73 1013.40 1014.08 1014.72 1015.28 1015.75 1016.13 1016.43 1016.68 1016.91 1017.14 1017.37 1017.62 1017.88 1018.13 1018.38 1018.59 1018.79 1018.95 1019.07 1019.16 1019.20 1019.21 1019.18 1019.13 1019.07 1019.02 1019.00 1019.04 1019.13 1019.29 1019.48 1019.69 1019.89 1020.06 1020.17 1020.24 1020.27 1020.28 1020.29
1011.23 1011.59 1012.08 1012.70 1013.38 1014.09 1014.77 1015.40 1015.94 1016.40 1016.78 1017.09 1017.36 1017.59 1017.80 1018.00 1018.19 1018.37 1018.55 1018.74 1018.93 1019.13 1019.31 1019.47 1019.60 1019.67 1019.69 1019.66 1019.60 1019.54 1019.50 1019.51 1019.59 1019.73 1019.92 1020.15 1020.37 1020.56 1020.71 1020.81 1020.87 1020.90 1020.92
1011.35 1011.70 1012.18 1012.76 1013.42 1014.11 1014.79 1015.44 1016.04 1016.57 1017.03 1017.41 1017.74 1018.00 1018.21 1018.37 1018.51 1018.63 1018.75 1018.90 1019.09 1019.30 1019.53 1019.77 1019.97 1020.12 1020.21 1020.22 1020.19 1020.14 1020.09 1020.08 1020.12 1020.24 1020.42 1020.63 1020.85 1021.06 1021.22 1021.35 1021.44 1021.51 1021.57
1011.63 1011.98 1012.42 1012.95 1013.54 1014.16 1014.80 1015.43 1016.04 1016.62 1017.14 1017.61 1018.00 1018.32 1018.56 1018.72 1018.84 1018.92 1019.01 1019.13 1019.30 1019.52 1019.79 1020.07 1020.34 1020.56 1020.71 1020.79 1020.80 1020.77 1020.73 1020.71 1020.74 1020.83 1020.98 1021.17 1021.37 1021.57 1021.74 1021.89 1022.01 1022.12 1022.22
1012.02 1012.37 1012.78 1013.24 1013.74 1014.27 1014.82 1015.39 1015.98 1016.56 1017.13 1017.67 1018.14 1018.53 1018.83 1019.04 1019.18 1019.27 1019.35 1019.45 1019.61 1019.83 1020.10 1020.41 1020.71 1020.97 1021.17 1021.30 1021.36 1021.37 1021.36 1021.37 1021.40 1021.48 1021.60 1021.76 1021.94 1022.12 1022.29 1022.45 1022.59 1022.74 1022.88
1012.42 1012.79 1013.17 1013.57 1013.98 1014.41 1014.86 1015.35 1015.88 1016.45 1017.05 1017.63 1018.18 1018.65 1019.03 1019.32 1019.51 1019.64 1019.74 1019.86 1020.01 1020.22 1020.48 1020.77 1021.07 1021.34 1021.56 1021.72 1021.83 1021.89 1021.93 1021.97 1022.04 1022.13 1022.25 1022.39 1022.55 1022.71 1022.86 1023.02 1023.19 1023.36 1023.54
1012.71 1013.12 1013.50 1013.86 1014.21 1014.55 1014.92 1015.33 1015.81 1016.35 1016.94 1017.55 1018.15 1018.70 1019.16 1019.53 1019.81 1020.01 1020.17 1020.32 1020.48 1020.68 1020.91 1021.16 1021.41 1021.65 1021.86 1022.03 1022.16 1022.28 1022.38 1022.48 1022.60 1022.73 1022.88 1023.02 1023.17 1023.31 1023.45 1023.60 1023.77 1023.95 1024.15
1012.80 1013.25 1013.66 1014.02 1014.35 1014.66 1014.98 1015.34 1015.77 1016.28 1016.86 1017.47 1018.10 1018.69 1019.22 1019.67 1020.04 1020.33 1020.56 1020.76 1020.95 1021.15 1021.34 1021.55 1021.74 1021.92 1022.09 1022.24 1022.39 1022.53 1022.70 1022.87 1023.06 1023.26 1023.44 1023.61 1023.76 1023.89 1024.02 1024.16 1024.32 1024.50 1024.71
1012.61 1013.10 1013.56 1013.97 1014.32 1014.66 1014.99 1015.36 1015.79 1016.28 1016.84 1017.44 1018.06 1018.67 1019.23 1019.73 1020.17 1020.54 1020.86 1021.13 1021.37 1021.58 1021.76 1021.92 1022.05 1022.17 1022.28 1022.39 1022.53 1022.71 1022.92 1023.16 1023.42 1023.69 1023.93 1024.13 1024.29 1024.43 1024.54 1024.66 1024.80 1024.97 1025.18
1012.12 1012.65 1013.16 1013.64 1014.08 1014.50 1014.92 1015.35 1015.82 1016.33 1016.88 1017.46 1018.05 1018.63 1019.18 1019.70 1020.18 1020.62 1021.01 1021.36 1021.67 1021.92 1022.12 1022.26 1022.36 1022.42 1022.48 1022.56 1022.68 1022.86 1023.10 1023.39 1023.71 1024.04 1024.32 1024.56 1024.75 1024.88 1024.99 1025.09 1025.21 1025.36 1025.55
1011.37 1011.92 1012.48 1013.05 1013.60 1014.15 1014.70 1015.25 1015.81 1016.38 1016.94 1017.50 1018.05 1018.58 1019.09 1019.58 1020.07 1020.54 1021.00 1021.43 1021.82 1022.15 1022.40 1022.57 1022.67 1022.72 1022.74 1022.79 1022.89 1023.06 1023.31 1023.63 1023.99 1024.34 1024.67 1024.93 1025.13 1025.27 1025.36 1025.45 1025.55 1025.69 1025.86
1010.49 1011.02 1011.60 1012.23 1012.90 1013.60 1014.31 1015.02 1015.71 1016.37 1016.98 1017.54 1018.04 1018.50 1018.95 1019.39 1019.84 1020.32 1020.83 1021.33 1021.81 1022.23 1022.58 1022.83 1022.98 1023.06 1023.10 1023.14 1023.23 1023.39 1023.63 1023.94 1024.30 1024.66 1024.99 1025.26 1025.46 1025.60 1025.69 1025.77 1025.86 1025.98 1026.14
1009.62 1010.09 1010.66 1011.32 1012.06 1012.88 1013.75 1014.62 1015.46 1016.24 1016.93 1017.51 1017.99 1018.40 1018.78 1019.15 1019.56 1020.02 1020.54 1021.10 1021.66 1022.20 1022.65 1023.01 1023.27 1023.42 1023.52 1023.59 1023.69 1023.84 1024.06 1024.35 1024.68 1025.01 1025.32 1025.58 1025.78 1025.91 1026.01 1026.08 1026.16 1026.28 1026.43
1008.94 1009.31 1009.80 1010.43 1011.20 1012.08 1013.06 1014.07 1015.05 1015.96 1016.74 1017.38 1017.87 1018.26 1018.59 1018.90 1019.26 1019.69 1020.20 1020.79 1021.42 1022.05 1022.63 1023.11 1023.49 1023.77 1023.96 1024.10 1024.23 1024.39 1024.59 1024.84 1025.12 1025.41 1025.68 1025.91 1026.09 1026.22 1026.32 1026.40 1026.49 1026.61 1026.76
1008.60 1008.84 1009.19 1009.72 1010.42 1011.29 1012.30 1013.39 1014.47 1015.49 1016.38 1017.10 1017.66 1018.07 1018.39 1018.68 1019.00 1019.39 1019.88 1020.47 1021.14 1021.83 1022.50 1023.10 1023.62 1024.02 1024.33 1024.56 1024.75 1024.94 1025.13 1025.34 1025.57 1025.81 1026.03 1026.23 1026.40 1026.53 1026.64 1026.74 1026.85 1026.98 1027.12
1008.72 1008.78 1008.95 1009.29 1009.83 1010.60 1011.55 1012.63 1013.76 1014.86 1015.85 1016.67 1017.33 1017.82 1018.19 1018.49 1018.80 1019.16 1019.62 1020.19 1020.84 1021.55 1022.27 1022.96 1023.58 1024.11 1024.54 1024.88 1025.16 1025.38 1025.59 1025.78 1025.98 1026.17 1026.35 1026.52 1026.67 1026.81 1026.94 1027.06 1027.20 1027.34 1027.50
1009.32 1009.18 1009.11 1009.20 1009.51 1010.07 1010.87 1011.85 1012.95 1014.07 1015.13 1016.07 1016.85 1017.46 1017.93 1018.31 1018.65 1019.01 1019.44 1019.95 1020.56 1021.23 1021.95 1022.68 1023.37 1023.99 1024.53 1024.98 1025.34 1025.64 1025.88 1026.08 1026.25 1026.41 1026.56 1026.71 1026.86 1027.01 1027.17 1027.33 1027.49 1027.65 1027.81
1010.34 1009.99 1009.66 1009.46 1009.48 1009.76 1010.31 1011.10 1012.08 1013.16 1014.25 1015.28 1016.20 1016.97 1017.59 1018.09 1018.51 1018.90 1019.30 1019.76 1020.29 1020.89 1021.55 1022.25 1022.96 1023.63 1024.25 1024.80 1025.26 1025.63 1025.92 1026.15 1026.33 1026.49 1026.63 1026.78 1026.93 1027.10 1027.28 1027.48 1027.67 1027.85 1028.02
1011.66 1011.11 1010.52 1010.02 1009.72 1009.66 1009.90 1010.43 1011.20 1012.16 1013.22 1014.31 1015.35 1016.28 1017.08 1017.75 1018.29 1018.75 1019.15 1019.56 1020.00 1020.50 1021.07 1021.70 1022.38 1023.06 1023.73 1024.35 1024.89 1025.35 1025.71 1025.99 1026.21 1026.37 1026.53 1026.68 1026.85 1027.04 1027.25 1027.47 1027.69 1027.89 1028.06
1013.11 1012.37 1011.56 1010.79 1010.16 1009.77 1009.66 1009.86 1010.37 1011.13 1012.10 1013.18 1014.30 1015.38 1016.36 1017.21 1017.90 1018.46 1018.91 1019.30 1019.67 1020.07 1020.53 1021.07 1021.68 1022.34 1023.03 1023.70 1024.31 1024.84 1025.28 1025.62 1025.88 1026.09 1026.26 1026.43 1026.62 1026.83 1027.06 1027.31 1027.54 1027.75 1027.93
1014.53 1013.64 1012.65 1011.65 1010.75 1010.03 1009.58 1009.44 1009.62 1010.13 1010.93 1011.94 1013.08 1014.26 1015.40 1016.42 1017.29 1017.98 1018.51 1018.91 1019.25 1019.57 1019.94 1020.39 1020.93 1021.55 1022.23 1022.93 1023.60 1024.20 1024.71 1025.12 1025.43 1025.67 1025.88 1026.07 1026.28 1026.50 1026.75 1027.00 1027.25 1027.47 1027.64
1015.78 1014.80 1013.70 1012.54 1011.43 1010.45 1009.68 1009.20 1009.05 1009.26 1009.82 1010.69 1011.78 1012.99 1014.23 1015.40 1016.43 1017.27 1017.90 1018.37 1018.71 1019.01 1019.32 1019.70 1020.18 1020.77 1021.44 1022.16 1022.86 1023.52 1024.09 1024.55 1024.92 1025.20 1025.44 1025.65 1025.87 1026.11 1026.36 1026.62 1026.86 1027.08 1027.25
Thickness
5689 5690 5690 5691 5693 5694 5695 5696 5696 5696 5696 5697 5697 5697 5697 5698 5699 5700 5701 5701 5702 5702 5703 5703 5703 5703 5704 5704 5704 5705 5705 5706 5706 5707 5707 5707 5707 5708 5708 5708 5708 5708 5708
5687 5686 5686 5688 5688 5689 5690 5691 5691 5691 5692 5692 5692 5693 5693 5694 5694 5695 5696 5697 5697 5698 5698 5699 5699 5699 5700 5700 5700 5700 5701 5702 5702 5702 5702 5703 5703 5704 5704 5704 5704 5704 5704
5683 5682 5682 5683 5684 5684 5685 5685 5685 5686 5687 5687 5688 5688 5688 5689 5690 5690 5691 5692 5692 5693 5694 5694 5694 5695 5695 5695 5696 5696 5697 5698 5698 5699 5699 5699 5699 5700 5700 5700 5700 5700 5701
5678 5677 5677 5678 5679 5679 5679 5680 5680 5681 5681 5682 5683 5683 5683 5684 5685 5685 5686 5686 5687 5688 5688 5689 5689 5690 5690 5690 5691 5692 5692 5693 5694 5695 5695 5695 5695 5695 5696 5696 5696 5696 5697
5672 5672 5672 5672 5673 5674 5674 5675 5675 5675 5675 5676 5677 5677 5678 5679 5679 5680 5680 5680 5681 5682 5683 5683 5684 5685 5685 5685 5686 5687 5688 5689 5690 5690 5690 5690 5690 5691 5691 5692 5692 5692 5692
5666 5666 5666 5667 5667 5667 5668 5669 5669 5669 5670 5670 5671 5671 5672 5673 5673 5674 5674 5675 5675 5676 5677 5677 5678 5679 5680 5680 5681 5682 5683 5684 5685 5685 5685 5685 5686 5686 5687 5687 5687 5687 5688
5660 5660 5659 5660 5661 5661 5662 5662 5663 5663 5663 5664 5665 5665 5666 5667 5668 5668 5668 5669 5669 5670 5671 5672 5672 5673 5674 5674 5675 5676 5677 5679 5680 5680 5680 5680 5681 5682 5682 5682 5682 5683 5683
5653 5653 5652 5653 5654 5654 5655 5655 5656 5656 5657 5657 5658 5659 5660 5660 5661 5662 5662 5662 5663 5664 5665 5666 5667 5667 5668 5669 5670 5671 5672 5673 5674 5675 5675 5675 5676 5676 5677 5677 5677 5678 5678
5646 5646 5645 5646 5646 5647 5648 5648 5649 5650 5650 5651 5651 5652 5653 5653 5654 5655 5656 5656 5657 5658 5658 5659 5660 5661 5662 5663 5664 5665 5666 5667 5668 5668 5669 5669 5670 5671 5671 5672 5672 5672 5673
5638 5638 5638 5638 5639 5639 5640 5641 5642 5643 5643 5644 5644 5645 5646 5646 5647 5648 5648 5649 5650 5651 5652 5653 5654 5654 5655 5656 5657 5659 5660 5661 5661 5661 5662 5662 5663 5664 5665 5665 5666 5666 5666
5629 5629 5630 5630 5631 5632 5633 5633 5634 5635 5636 5636 5637 5638 5639 5639 5640 5641 5641 5642 5643 5644 5645 5646 5647 5648 5648 5650 5651 5652 5653 5653 5654 5654 5655 5656 5657 5658 5659 5659 5659 5659 5660
5619 5620 5621 5622 5623 5624 5625 5626 5627 5628 5628 5629 5630 5631 5631 5632 5633 5633 5634 5635 5636 5637 5638 5639 5640 5640 5641 5642 5644 5645 5646 5646 5647 5647 5647 5649 5650 5651 5652 5652 5652 5653 5653
5611 5611 5612 5614 5615 5616 5617 5618 5620 5621 5621 5622 5623 5623 5624 5625 5625 5626 5627 5627 5628 5629 5630 5632 5632 5633 5634 5635 5636 5637 5638 5639 5639 5639 5639 5641 5642 5643 5644 5645 5645 5646 5646
5602 5603 5603 5605 5606 5607 5608 5610 5611 5613 5614 5614 5615 5616 5617 5617 5618 5619 5619 5619 5620 5621 5622 5624 5625 5626 5627 5628 5628 5629 5630 5630 5630 5631 5631 5633 5634 5635 5636 5637 5638 5639 5639
5594 5594 5594 5596 5597 5598 5599 5600 5601 5603 5605 5606 5607 5608 5609 5610 5610 5611 5612 5612 5612 5613 5615 5616 5617 5618 5619 5620 5620 5621 5622 5622 5622 5623 5623 5624 5625 5626 5628 5629 5630 5631 5631
5586 5585 5586 5586 5587 5588 5590 5591 5592 5594 5595 5597 5598 5599 5600 5601 5602 5603 5604 5604 5604 5605 5607 5608 5609 5610 5611 5612 5612 5613 5613 5614 5614 5615 5615 5615 5616 5617 5619 5620 5621 5622 5623
5577 5577 5576 5577 5578 5579 5580 5581 5582 5584 5586 5587 5588 5589 5591 5592 5593 5594 5595 5595 5596 5597 5598 5599 5600 5601 5602 5602 5603 5604 5604 5605 5606 5606 5606 5606 5606 5607 5609 5610 5612 5613 5614
5567 5567 5567 5568 5568 5569 5570 5571 5573 5574 5576 5578 5579 5580 5582 5583 5584 5585 5586 5586 5587 5588 5589 5589 5590 5591 5591 5592 5593 5594 5595 5596 5596 5597 5597 5597 5597 5598 5599 5600 5601 5602 5603
5557 5557 5557 5557 5558 5558 5559 5561 5563 5564 5565 5567 5569 5570 5572 5573 5574 5575 5576 5576 5577 5578 5579 5580 5580 5580 5580 5581 5582 5584 5585 5586 5586 5587 5587 5587 5588 5588 5588 5589 5590 5592 5593
5546 5546 5546 5546 5547 5547 5548 5550 5551 5553 5555 5556 5558 5560 5562 5563 5564 5565 5565 5566 5567 5568 5568 5569 5569 5570 5570 5571 5573 5573 5575 5576 5577 5577 5577 5577 5577 5578 5578 5579 5580 5581 5582
5534 5534 5535 5535 5535 5536 5536 5538 5539 5541 5543 5545 5547 5548 5551 5553 5554 5555 5555 5555 5556 5557 5558 5559 5559 5559 5559 5561 5560 5560 5563 5565 5566 5566 5566 5567 5567 5568 5568 5569 5570 5570 5571
5520 5521 5522 5523 5524 5524 5525 5526 5528 5529 5531 5533 5535 5537 5539 5541 5543 5545 5545 5545 5545 5546 5547 5548 5548 5547 5548 5550 5549 5548 5548 5551 5553 5556 5556 5556 5557 5557 5558 5558 5559 5559 5560
5504 5506 5509 5511 5512 5513 5514 5515 5516 5516 5518 5520 5522 5525 5527 5529 5532 5533 5534 5535 5535 5535 5536 5536 5537 5537 5536 5537 5539 5539 5536 5536 5537 5543 5545 5546 5546 5546 5547 5547 5548 5548 5549
5491 5492 5494 5496 5498 5501 5502 5503 5504 5505 5506 5509 5511 5512 5514 5517 5519 5521 5522 5524 5524 5525 5525 5525 5525 5526 5526 5525 5526 5529 5529 5529 5526 5526 5531 5534 5535 5535 5536 5537 5537 5537 5537
5478 5479 5480 5483 5485 5487 5489 5490 5491 5493 5495 5497 5498 5500 5502 5504 5507 5508 5510 5512 5512 5513 5514 5513 5514 5514 5515 5515 5515 5516 5517 5518 5518 5515 5516 5519 5521 5523 5524 5525 5526 5526 5526
5465 5466 5467 5469 5471 5473 5475 5477 5479 5481 5482 5484 5486 5487 5489 5491 5494 5496 5497 5499 5500 5501 5501 5502 5502 5502 5503 5504 5504 5505 5505 5505 5506 5505 5505 5505 5507 5510 5512 5513 5514 5515 5515